Regional Weather Roundup
Issued by NWS

Home | Current Version | Previous Version | Graphics & Text | Print | Product List | Glossary On
Versions: 1 2 3 4 5 6 7 8 9 10 11 12 13 14 15 16 17 18 19 20 21 22 23 24 25 26 27 28 29 30 31 32 33 34 35 36 37 38 39 40 41 42 43 44 45 46 47 48 49 50
000
ASUS43 KMPX 060101
RWRMN
WEATHER ROUNDUP FOR MINNESOTA
NATIONAL WEATHER SERVICE TWIN CITIES/CHANHASSEN MN
700 PM CST THU MAR 05 2015


NOTE: "FAIR" INDICATES FEW OR NO CLOUDS BELOW 12,000 FEET WITH NO
SIGNIFICANT WEATHER AND/OR OBSTRUCTIONS TO VISIBILITY. N/A MEANS
CURRENT SKY AND/OR WEATHER CONDITIONS ARE NOT AVAILABLE.

MNZ060>063-068>070-060200-
   Twin Cities Metro

CITY           SKY/WX    TMP DP  RH WIND       PRES   REMARKS
TWIN CITIES    CLEAR     14   0  53 S8        30.39F WCI   3
ST PAUL        CLEAR     10  -1  61 S8        30.42S WCI  -2
CRYSTAL        CLEAR     13   1  59 S7        30.37F WCI   3
BLAINE         CLEAR     12   1  62 S6        30.37F WCI   3
LAKEVILLE      CLEAR      9   0  66 S3        30.39F
EDEN PRAIRIE   CLEAR     11   0  61 S9        30.37F WCI  -2
SOUTH ST PAUL  CLEAR     12   1  60 S5        30.40F WCI   5
LAKE ELMO      FAIR      10   1  67 S7        30.40F WCI   0
$$
MNZ001>005-007-008-013>017-022>024-027-028-060200-
   Northwest Minnesota

CITY           SKY/WX    TMP DP  RH WIND       PRES   REMARKS
BEMIDJI        CLEAR     13  -3  49 S9        30.16S WCI   0
HALLOCK        CLEAR     19  10  68 S18       30.05F WCI   4
ROSEAU         CLEAR     16   7  67 S16       30.06F WCI   0
WARROAD        CLEAR     14   5  67 S12G17    30.07F WCI   0
THIEF RVR FALL CLEAR     16   5  62 S16       30.11F WCI   0
CROOKSTON      CLEAR     19  10  68 S17       30.14F WCI   4
FOSSTON        CLEAR     10   1  67 S20G25    30.14F WCI  -8
DETROIT LAKES  CLEAR     14   5  67 S8        30.20S WCI   3
MOORHEAD       CLEAR     18   9  68 S15       30.20F WCI   3
PARK RAPIDS    CLEAR     10  -3  55 S8        30.20S WCI  -2
MAHNOMEN       FAIR      13   4  68 S15G23    30.17S WCI  -3
$$
MNZ006-009>011-018-025>026-060200-
   North Central Minnesota

CITY           SKY/WX    TMP DP  RH WIND       PRES   REMARKS
BAUDETTE       CLEAR     15   0  51 SW15      30.08F WCI   0
FLAG ISLAND    CLEAR     10   1  67 S14       30.04F WCI  -5
INTL FALLS     CLEAR     13  -6  42 S7        30.12F WCI   3
WASKISH        CLEAR     16  -2  45 S7        30.13F WCI   6
BIG FORK       CLEAR     10  -4  52 S13       30.17S WCI  -5
LONGVILLE      CLEAR     10  -6  48 S8        30.22F WCI  -1
GRAND RAPIDS   CLEAR     10  -6  48 S9        30.20S WCI  -2
CRANE LAKE     CLEAR     10 -11  37 S3        30.19R
ORR            CLEAR     10  -9  40 CALM      30.14S
COOK           CLEAR     10  -8  44 S7        30.18S WCI   0
WALKER         FAIR      11  -5  48 S9        30.20S WCI  -1
$$
MNZ012-019>021-037-060200-
   Northeast Minnesota

CITY           SKY/WX    TMP DP  RH WIND       PRES   REMARKS
DULUTH         CLEAR      9  -6  50 SW12      30.24R WCI  -6
ELY            CLEAR      9  -8  47 SW6       30.17S WCI  -1
HIBBING        CLEAR      9  -8  46 S7        30.20S WCI  -2
EVELETH        CLEAR     10  -6  48 SW10      30.21S WCI  -3
DULUTH HARBOR  CLEAR     12  -4  48 SW13      30.32F WCI  -3
TWO HARBORS    CLEAR     12  -2  52 SW12      30.24S WCI  -2
SILVER BAY     CLEAR     10  -6  48 SW5       30.22F WCI   2
GRAND MARAIS     N/A     14  -7  38 W6        30.24R WCI   5
G MARAIS ARPRT FAIR       3 -13  47 SW5       30.14S WCI  -6
$$
MNZ029>031-032-039>041-046>048-054>057-064-060200-
   West Central Minnesota

CITY           SKY/WX    TMP DP  RH WIND       PRES   REMARKS
FERGUS FALLS   CLEAR     12   3  67 S12       30.26F WCI  -2
WHEATON        CLEAR     12   7  79 SE9       30.25F WCI   0
MORRIS         CLEAR     12   7  79 S10       30.25F WCI  -1
ALEXANDRIA     CLEAR     12   1  61 S7        30.26R WCI   1
ELBOW LAKE     FAIR      12   4  72 S12       30.24F WCI  -2
WADENA         CLEAR      7  -2  66 S7        30.23F WCI  -5
GLENWOOD       CLEAR      9   1  72 S8        30.27S WCI  -4
APPLETON       CLEAR     18   9  68 SE6       30.27F WCI   9
BENSON         CLEAR     16   5  62 S5        30.28F WCI   9
ORTONVILLE     CLEAR     14   7  73 SE7       30.24F WCI   4
MADISON        CLEAR     18   9  68 SE9       30.27F WCI   6
WILLMAR        FAIR      16   5  62 CALM      30.31F
$$
MNZ033>034-036-042>043-049>051-058-059-060200-
   Central Minnesota

CITY           SKY/WX    TMP DP  RH WIND       PRES   REMARKS
ST CLOUD       CLEAR      8  -1  66 S8        30.33F WCI  -4
SAUK CENTRE    FAIR       8   2  74 SE8       30.28F WCI  -4
PAYNESVILLE    CLEAR     11   1  63 SE7       30.31S WCI   1
AITKIN         CLEAR     10  -2  56 S7        30.27S WCI   0
PINE RIVER     CLEAR     10  -2  56 S7        30.27F WCI   0
BRAINERD       CLEAR      6  -3  66 S8        30.28S WCI  -7
STAPLES        CLEAR      9   0  66 S5        30.25F WCI   0
LONG PRAIRIE   FAIR       5   0  78 SE8       30.27S WCI  -8
LITTLE FALLS   CLEAR     10   0  61 SE5       30.31S WCI   2
LITCHFIELD     CLEAR     10   3  72 CALM      30.33F
BUFFALO        CLEAR     11   2  66 CALM      30.36F
MAPLE LAKE     CLEAR     10   3  73 CALM      30.35F
$$
MNZ037-044-045-052-053-060200-
   East Central Minnesota

CITY           SKY/WX    TMP DP  RH WIND       PRES   REMARKS
PRINCETON      CLEAR      9   0  66 CALM      30.34F
MORA           CLEAR      9  -4  56 S7        30.36S WCI  -3
CAMBRIDGE      CLEAR      9  -2  61 CALM      30.34F
RUSH CITY      CLEAR      8  -4  59 S3        30.37F
MOOSE LAKE     CLEAR     10  -4  52 CALM      30.29S
HINCKLEY       FAIR       9  -2  61 S8        30.34S WCI  -4
CLOQUET        CLEAR      9  -6  52 SW8       30.26S WCI  -4
MCGREGOR       CLEAR      9  -2  61 S7        30.28S WCI  -3
$$
MNZ071>073-080-081-089-090-097-098-060200-
   Southwest Minnesota

CITY           SKY/WX    TMP DP  RH WIND       PRES   REMARKS
MONTEVIDEO     CLEAR     18   9  68 S8        30.29F WCI   7
GRANITE FALLS  CLEAR     18   8  66 SE8       30.31F WCI   7
CANBY          CLEAR     15   8  72 SE8       30.26F WCI   4
MARSHALL       CLEAR     18   7  62 SE9       30.29F WCI   6
REDWOOD FALLS  CLEAR     16   5  62 S9        30.32F WCI   4
OLIVIA         CLEAR     14   5  67 SE6       30.31F WCI   5
PIPESTONE      CLEAR     19   9  63 S12       30.24S WCI   7
WINDOM         CLEAR     16   7  67 SE8       30.31F WCI   5
WORTHINGTON    CLEAR     18   5  57 S13       30.31S WCI   4
JACKSON        CLEAR     18   5  57 S12       30.33F WCI   5
TRACY          CLEAR     19   8  62 S9        30.28F WCI   8
SLAYTON        CLEAR     16   6  65 CALM      30.28S
$$
MNZ065>067-074>077-082>085-091>093-060200-
   South Central Minnesota

CITY           SKY/WX    TMP DP  RH WIND       PRES   REMARKS
MANKATO        CLEAR     14   0  52 S7        30.38F WCI   4
NEW ULM        CLEAR     14   3  62 S9        30.36S WCI   2
ST JAMES       CLEAR     18   7  62 SE9       30.38S WCI   6
FAIRMONT       CLEAR     16   3  57 S6        30.36S WCI   7
GLENCOE        CLEAR     14   6  71 S5        30.35F WCI   7
FARIBAULT      CLEAR     10   1  67 S6        30.40S WCI   1
OWATONNA       CLEAR     10   1  67 S9        30.39S WCI  -2
WASECA         CLEAR     12   3  67 S8        30.41S WCI   1
ALBERT LEA     CLEAR     10   3  72 S8        30.40S WCI  -1
$$
MNZ078>079-086>088-094>096-060200-
   Southeast Minnesota

CITY           SKY/WX    TMP DP  RH WIND       PRES   REMARKS
ROCHESTER      CLEAR      2  -5  72 S10       30.41S WCI -14
RED WING       CLEAR     10   0  61 S6        30.43S WCI   1
STANTON        CLEAR      9   0  68 S6        30.40S WCI  -1
DODGE CENTER   PTCLDY     3   0  85 S10       30.39S WCI -12
WINONA         CLEAR     10   0  61 CALM      30.48F
AUSTIN         CLEAR      7   0  72 S7        30.42S WCI  -5
PRESTON        CLEAR      3  -4  72 S7        30.43S WCI -10
$$
ABBREVIATIONS USED IN REMARKS
   TC - TEMPERATURES IN CELSIUS
  WCI - WIND CHILL INDEX
   HX - HEAT INDEX
  VSB - VISIBILITY
$$


USA.gov is the U.S. government's official web portal to all federal, state and local government web resources and services.